INTELSAT 33E DEB, 61989

Orbit data source: Space-Track

INTELSAT 33E DEB, 61989 is space debris in GEO originally from a launch on Wed, 24 Aug 2016 UTC launched from the French Guiana (FRGUI). Debris objects in space refer to the collection of defunct objects orbiting the Earth. Examples of debris include non-operational satellites, rocket bodies, and fragments generated from explosions, collisions, or faulty payload assembly.

Loading next visibility...
Identifier
61989, 2016-053F
Orbit
GEO
Country
Flag of USUS / ITSO
Related business
Manufacturer
Boeing/ES
Mission
Spacecraft
Bus & Motor
Unknown
Mass
Unknown
Launch date (UTC)
2016-08-24 (10 years ago)
Launch vehicle
Unknown
Launch site
French Guiana (FRGUI)
Object type
Payload
Rocket body
Debris
Shape & HBR
Unknown shape, 1.1 m
Radar Cross Section
RCS unknown

Expand to show TLE details & history
Last TLE update: 14 hours ago

TLE from 14 hours ago
0 INTELSAT 33E DEB
1 61989U 16053F   26121.13459784 -.00000093  00000-0  00000+0 0  9993
2 61989   2.4154 111.7876 0107608  83.4461 278.1039  0.98045017  5380
Epoch: 2026-05-01T03:13Z
TLE epoch observation values (Epoch: 2026-05-01T03:13:49.253Z)
Latitude
-0.00001°
Longitude
-155.42134°
Altitude
36,363.783 km
Speed
3.056 km/s
True Right ascension
07h 28m 25s
True Declination
0° 00' 00"
Sunlit
Object was in daylight at epoch
Visualization orbit readout
Latitude
Unknown
Longitude
Unknown
Altitude
Unknown
Speed
Unknown
Apparent Right ascension
Unknown
Apparent Declination
Unknown
Sunlit
N/A
Visualization observer readout
Local Sidereal Time
01:16:32
Azimuth
Unknown
Elevation
Unknown
Doppler factor
Unknown
Orbital elements
Apogee altitude
36,884.258 km
Perigee altitude
35,963.095 km
Semi-major axis
42,801.814 km
Eccentricity
0.01076
Inclination
2.4154°
RAAN
111.7876°
Arg. of periapsis
83.4461°
True anomaly
276.88089°
Mean anomaly
278.1039°
Eccentric anomaly
277.49262°
Mean motion
0.2451 °/min
Orbital period
1,468.77 mins
BSTAR
0
Loading maneuver chart data...
Computing Atmospheric mass density...
Loading historical data...
Loading historical data...
Loading historical data...
Loading historical data...
Loading historical data...
Loading historical data...
Loading historical data...

Documentation

Showing up to 5 results
|